Weather History for Westhampton Beach, NY

Change the Weather History Date:

Monday, December 24, 2012

  Actual Average Record
Temperature  
Mean Temperature 28 °F -  
Max Temperature 41 °F 39 °F 57 °F (1996)
Min Temperature 15 °F 23 °F 7 °F (2000)
Degree Days  
Heating Degree Days 37    
Moisture  
Dew Point 22 °F    
Average Humidity 72    
Maximum Humidity 93    
Minimum Humidity 45    
Precipitation  
Precipitation 0.06 in - - ()
Sea Level Pressure  
Sea Level Pressure 30.04 in    
Wind  
Wind Speed 1 mph (NE)    
Max Wind Speed 7 mph    
Max Gust Speed -    
Visibility 9 miles    
Events Rain , Snow    
Averages and records for this station are not official NWS values.
T = Trace of Precipitation, MM = Missing Value Source: NWS Daily Summary

Daily Weather History Graph

Daily Weather History Graph

Search for Another Location

Airport:

Trip Planner

Search our weather history database for the weather conditions in past years. The results will help you decide how hot, cold, wet, or windy it might be!

Date:

Astronomy

Dec. 24, 2012 Rise Set
Actual Time 7:13 AM EST 4:27 PM EST
Civil Twilight 6:41 AM EST 4:58 PM EST
Nautical Twilight 6:07 AM EST 5:33 PM EST
Astronomical Twilight 5:33 AM EST 6:06 PM EST
Moon 1:53 PM EST (12/24) 3:48 AM EST (12/24)
Length of Visible Light 10h 16m
Length of Day
9h 14m
Waxing Gibbous, 88% of the Moon is Illuminated
Dec 24
Waxing Gibbous
Dec 28
Full
Jan 4
Last Quarter
Jan 11
New
Jan 18
First Quarter

Hourly Weather History & Observations

Time (EST) Temp. Windchill Dew Point Humidity Pressure Visibility Wind Dir Wind Speed Gust Speed Precip Events Conditions
12:53 AM 19.0 °F - 14.0 °F 81% 29.96 in 10.0 mi Calm Calm - N/A   Clear
1:53 AM 19.9 °F - 15.1 °F 81% 29.98 in 10.0 mi Calm Calm - N/A   Clear
2:53 AM 18.0 °F - 12.0 °F 78% 29.99 in 10.0 mi Calm Calm - N/A   Clear
3:53 AM 17.1 °F - 12.0 °F 81% 29.99 in 10.0 mi Calm Calm - N/A   Clear
4:53 AM 16.0 °F - 12.0 °F 84% 30.00 in 10.0 mi Calm Calm - N/A   Clear
5:53 AM 18.0 °F - 12.9 °F 81% 30.03 in 10.0 mi Calm Calm - N/A   Clear
6:53 AM 15.1 °F - 10.9 °F 84% 30.06 in 10.0 mi Calm Calm - N/A   Clear
7:53 AM 18.0 °F - 12.9 °F 81% 30.08 in 10.0 mi Calm Calm - N/A   Clear
8:53 AM 30.0 °F - 23.0 °F 75% 30.09 in 10.0 mi Calm Calm - N/A   Clear
9:53 AM 39.0 °F 34.0 °F 25.0 °F 57% 30.11 in 10.0 mi NNW 6.9 mph - N/A   Clear
10:53 AM 41.0 °F 36.4 °F 21.0 °F 45% 30.09 in 10.0 mi North 6.9 mph - N/A   Clear
11:53 AM 39.9 °F - 21.0 °F 47% 30.08 in 10.0 mi Calm Calm - N/A   Clear
12:53 PM 39.9 °F 36.7 °F 21.0 °F 47% 30.06 in 10.0 mi NE 4.6 mph - N/A   Clear
1:53 PM 39.0 °F 35.7 °F 21.9 °F 50% 30.06 in 10.0 mi North 4.6 mph - N/A   Clear
2:53 PM 39.0 °F - 21.9 °F 50% 30.08 in 10.0 mi Calm Calm - N/A   Clear
3:53 PM 36.0 °F - 21.9 °F 57% 30.07 in 10.0 mi Calm Calm - N/A   Clear
4:53 PM 30.9 °F - 19.9 °F 64% 30.07 in 10.0 mi Calm Calm - N/A   Clear
5:53 PM 30.9 °F - 21.9 °F 69% 30.07 in 10.0 mi Calm Calm - N/A   Clear
6:53 PM 32.0 °F - 23.0 °F 69% 30.06 in 10.0 mi Calm Calm - N/A   Mostly Cloudy
7:53 PM 36.0 °F - 25.0 °F 64% 30.06 in 10.0 mi Calm Calm - N/A   Overcast
8:15 PM 33.8 °F - 24.8 °F 70% 30.05 in 2.5 mi Calm Calm - 0.00 in Snow Light Snow
8:39 PM 33.8 °F 29.6 °F 26.6 °F 75% 30.04 in 1.8 mi ENE 4.6 mph - 0.01 in Snow Light Snow
8:53 PM 33.1 °F 27.7 °F 28.0 °F 82% 30.04 in 3.0 mi ENE 5.8 mph - 0.01 in Snow Light Snow
9:05 PM 33.8 °F 28.6 °F 28.4 °F 81% 30.03 in 5.0 mi ENE 5.8 mph - 0.00 in Snow Light Snow
9:38 PM 33.8 °F 29.6 °F 30.2 °F 87% 30.01 in 8.0 mi ENE 4.6 mph - 0.01 in Rain Light Rain
9:53 PM 33.1 °F 28.7 °F 30.0 °F 89% 30.01 in 6.0 mi NE 4.6 mph - 0.01 in Rain Light Rain
10:10 PM 33.8 °F 28.6 °F 30.2 °F 87% 30.00 in 6.0 mi ENE 5.8 mph - 0.01 in Rain Light Rain
10:53 PM 35.1 °F 30.1 °F 32.0 °F 89% 29.99 in 10.0 mi ENE 5.8 mph - 0.03 in Rain Light Rain
11:53 PM 36.0 °F 32.1 °F 34.0 °F 93% 29.96 in 10.0 mi ENE 4.6 mph - 0.01 in   Overcast